EW5196 Weather Reports


Display with metric or nautical units.
time (UTC)temp
F
wind
direction
speed
MPH
gust
MPH
rain 1hr
in
rain 24hr
in
rain mn
in
humidity
%
barometer
mb
20260503000815 55 140 2.0 2.0 0.00 0.04 0.04 62 1014.3
20260503000312 55 147 3.0 3.0 0.00 0.04 0.04 59 1014.0
20260502235809 55 138 2.0 2.0 0.00 0.04 0.04 58 1013.9
20260502235306 56 159 2.0 3.0 0.00 0.04 0.04 57 1013.9
20260502234803 56 140 2.0 3.0 0.00 0.04 0.04 54 1013.7
20260502234300 57 136 2.0 3.0 0.00 0.04 0.04 49 1013.7
20260502233756 57 141 2.0 2.0 0.00 0.04 0.04 48 1013.5
20260502233253 58 133 2.0 2.0 0.00 0.04 0.04 48 1013.5
20260502232749 58 122 2.0 3.0 0.00 0.04 0.04 49 1013.7
20260502232246 59 150 2.0 2.0 0.00 0.04 0.04 42 1013.2
20260502231742 59 175 3.0 5.0 0.00 0.04 0.04 43 1013.3
20260502231240 59 147 2.0 3.0 0.00 0.04 0.04 41 1013.4
20260502230739 59 147 2.0 2.0 0.00 0.04 0.04 42 1013.4
20260502230236 59 128 3.0 3.0 0.00 0.04 0.04 40 1013.3
20260502225732 59 167 3.0 5.0 0.00 0.04 0.04 41 1013.1
20260502225230 59 140 2.0 4.0 0.00 0.04 0.04 42 1013.1
20260502224726 59 152 1.0 4.0 0.00 0.04 0.04 40 1012.9
20260502224223 59 218 2.0 6.0 0.00 0.04 0.04 40 1012.9
20260502223720 60 208 2.0 5.0 0.00 0.04 0.04 39 1013.0
20260502223218 60 133 3.0 5.0 0.00 0.04 0.04 39 1013.0
20260502222716 60 188 3.0 3.0 0.00 0.04 0.04 40 1013.0
20260502222212 60 205 2.0 4.0 0.00 0.04 0.04 39 1013.0
20260502221708 60 211 2.0 6.0 0.00 0.04 0.04 39 1013.1
20260502221205 60 149 3.0 4.0 0.00 0.04 0.04 40 1013.0
20260502220701 60 175 1.0 5.0 0.00 0.04 0.04 38 1013.3
20260502220157 60 230 1.0 5.0 0.00 0.04 0.04 37 1013.4
20260502215654 61 142 3.0 5.0 0.00 0.04 0.04 38 1013.4
20260502215151 61 259 0.0 3.0 0.00 0.04 0.04 38 1013.3
20260502214649 60 187 1.0 4.0 0.00 0.04 0.04 37 1013.2
20260502214146 61 163 4.0 6.0 0.00 0.04 0.04 37 1013.5
20260502213643 61 185 4.0 5.0 0.00 0.04 0.04 40 1013.2
20260502213140 61 210 2.0 4.0 0.00 0.04 0.04 37 1013.3
20260502212639 61 180 0.0 5.0 0.00 0.04 0.04 37 1013.2
20260502212137 61 99 4.0 5.0 0.00 0.04 0.04 38 1013.2
20260502211632 62 200 4.0 4.0 0.00 0.04 0.04 38 1013.4
20260502211129 61 189 1.0 3.0 0.00 0.04 0.04 38 1013.2
20260502210627 60 119 1.0 3.0 0.00 0.04 0.04 37 1013.1
20260502210123 60 165 4.0 4.0 0.00 0.04 0.04 37 1013.0
20260502205620 60 158 3.0 5.0 0.00 0.04 0.04 39 1013.1
20260502205111 60 215 1.0 3.0 0.00 0.04 0.04 40 1013.0
20260502204608 60 103 3.0 3.0 0.00 0.04 0.04 38 1013.1
20260502204106 60 176 3.0 4.0 0.00 0.04 0.04 38 1013.0
20260502203603 61 148 3.0 4.0 0.00 0.04 0.04 39 1013.2
20260502203100 61 158 3.0 3.0 0.00 0.04 0.04 39 1013.2
20260502202555 61 177 3.0 5.0 0.00 0.04 0.04 38 1013.3
20260502202054 62 184 2.0 7.0 0.00 0.04 0.04 35 1013.3
20260502201550 62 119 2.0 4.0 0.00 0.04 0.04 37 1013.4
20260502201047 61 166 1.0 3.0 0.00 0.04 0.04 40 1013.3
20260502200542 61 152 2.0 3.0 0.00 0.04 0.04 36 1013.4
20260502200040 61 184 2.0 8.0 0.00 0.04 0.04 37 1013.3
20260502195538 61 164 3.0 4.0 0.00 0.04 0.04 39 1013.3
20260502195033 61 164 10.0 10.0 0.00 0.04 0.04 37 1013.1
20260502194530 61 258 0.0 5.0 0.00 0.04 0.04 39 1013.5
20260502194026 60 198 1.0 5.0 0.00 0.04 0.04 40 1013.4
20260502193524 61 164 4.0 5.0 0.00 0.04 0.04 38 1013.6
20260502193021 60 188 3.0 4.0 0.00 0.04 0.04 38 1013.6
20260502192516 61 187 1.0 3.0 0.00 0.04 0.04 37 1013.8
20260502192014 61 143 2.0 4.0 0.00 0.04 0.04 37 1013.6
20260502191510 61 214 0.0 3.0 0.00 0.04 0.04 38 1013.8
20260502191008 60 140 3.0 4.0 0.00 0.04 0.04 37 1014.0
20260502190505 61 137 2.0 3.0 0.00 0.04 0.04 36 1013.9
20260502190002 61 171 0.0 5.0 0.00 0.04 0.04 37 1014.0
20260502185457 60 119 3.0 7.0 0.00 0.04 0.04 37 1014.0
20260502184954 61 249 2.0 3.0 0.00 0.04 0.04 38 1014.1
20260502184449 61 206 3.0 4.0 0.00 0.04 0.04 38 1014.4
20260502183947 61 184 4.0 6.0 0.00 0.04 0.04 38 1014.3
20260502183443 61 187 3.0 6.0 0.00 0.04 0.04 39 1014.2
20260502182938 60 153 2.0 4.0 0.00 0.04 0.04 39 1014.2
20260502182434 60 226 4.0 10.0 0.00 0.04 0.04 37 1014.4
20260502181930 60 109 3.0 7.0 0.00 0.04 0.04 37 1014.4
20260502181428 60 166 1.0 3.0 0.00 0.04 0.04 39 1014.7
20260502180926 60 166 3.0 4.0 0.00 0.04 0.04 38 1014.6
20260502180423 59 126 4.0 8.0 0.00 0.04 0.04 40 1014.6
20260502170342 57 152 3.0 4.0 0.26 0.04 0.04 43 1016.0
20260502164330 57 127 2.0 3.0 0.00 0.00 0.00 46 1015.9
20260502163826 57 158 2.0 2.0 0.00 0.00 0.00 45 1015.8
20260502163322 57 123 0.0 3.0 0.00 0.00 0.00 44 1015.9
20260502162820 56 177 0.0 3.0 0.00 0.00 0.00 44 1015.9
20260502162316 56 161 3.0 3.0 0.00 0.00 0.00 43 1015.8
20260502161813 56 114 0.0 3.0 0.00 0.00 0.00 44 1016.1
20260502161303 56 151 2.0 2.0 0.00 0.00 0.00 45 1016.1
20260502160801 56 141 3.0 4.0 0.00 0.00 0.00 43 1016.4
20260502160300 56 111 1.0 4.0 0.00 0.00 0.00 43 1016.1
20260502152229 55 164 2.0 3.0 0.00 0.00 0.00 47 1016.6
20260502151727 55 161 1.0 3.0 0.00 0.00 0.00 48 1016.6
20260502151224 55 136 3.0 3.0 0.00 0.00 0.00 48 1016.2
20260502150721 55 123 3.0 4.0 0.00 0.00 0.00 50 1016.3
20260502150218 54 169 2.0 4.0 0.00 0.00 0.00 49 1016.2
20260502130606 53 239 1.0 6.0 0.00 0.00 0.00 60 1015.7
20260502130104 53 188 1.0 3.0 0.00 0.00 0.00 63 1015.8
20260502123549 52 152 3.0 6.0 0.00 0.00 0.00 65 1015.3
20260502123045 52 153 2.0 2.0 0.00 0.00 0.00 68 1015.4
20260502122542 52 147 3.0 6.0 0.00 0.00 0.00 68 1015.5
20260502122040 52 175 2.0 5.0 0.00 0.00 0.00 69 1015.4
20260502121537 52 144 2.0 3.0 0.00 0.00 0.00 70 1015.6
20260502121035 52 255 0.0 4.0 0.00 0.00 0.00 71 1015.3
20260502120531 52 171 1.0 3.0 0.00 0.00 0.00 71 1015.3
20260502115526 51 137 3.0 3.0 0.00 0.00 0.00 72 1015.1
20260502115021 51 143 1.0 3.0 0.00 0.00 0.00 73 1015.2
20260502114518 51 129 2.0 6.0 0.00 0.00 0.00 73 1015.1
20260502114015 51 149 2.0 3.0 0.00 0.00 0.00 75 1015.4
20260502113513 51 163 1.0 4.0 0.00 0.00 0.00 77 1015.1
20260502113011 50 139 1.0 3.0 0.00 0.00 0.00 81 1015.2
20260502112509 50 140 3.0 3.0 0.00 0.00 0.00 84 1015.3
20260502112006 49 142 1.0 3.0 0.00 0.00 0.00 89 1015.3
20260502111503 49 140 1.0 2.0 0.00 0.00 0.00 91 1015.2
20260502111000 48 150 1.0 2.0 0.00 0.00 0.00 92 1015.5
20260502110458 48 148 2.0 2.0 0.00 0.00 0.00 93 1015.4
20260502105955 48 152 2.0 2.0 0.00 0.00 0.00 93 1015.3
20260502105453 48 157 2.0 2.0 0.00 0.00 0.00 94 1015.3
20260502104950 48 152 1.0 2.0 0.00 0.00 0.00 93 1015.3
20260502104447 48 154 1.0 2.0 0.00 0.00 0.00 93 1015.3
20260502103944 48 161 1.0 2.0 0.00 0.00 0.00 94 1015.2
20260502103442 48 148 1.0 2.0 0.00 0.00 0.00 94 1015.0
20260502102938 48 157 2.0 2.0 0.00 0.00 0.00 94 1015.2
20260502102436 48 151 2.0 2.0 0.00 0.00 0.00 94 1015.2
20260502101932 48 154 1.0 2.0 0.00 0.00 0.00 94 1015.0
20260502101431 48 151 2.0 2.0 0.00 0.00 0.00 94 1015.0
20260502100929 48 145 1.0 2.0 0.00 0.00 0.00 94 1014.8
20260502100428 47 137 1.0 2.0 0.00 0.00 0.00 94 1014.6
20260502091402 48 154 1.0 2.0 0.00 0.00 0.00 94 1014.6
20260502090859 48 157 1.0 2.0 0.00 0.00 0.00 93 1014.5
20260502090355 48 143 1.0 2.0 0.00 0.00 0.00 93 1014.6
20260502071251 50 165 1.0 2.0 0.00 0.00 0.00 87 1014.0
20260502070749 50 147 2.0 2.0 0.00 0.00 0.00 87 1013.9
20260502070246 51 150 1.0 2.0 0.00 0.00 0.00 86 1014.0
20260502065745 51 148 2.0 2.0 0.00 0.00 0.00 85 1014.1
20260502065242 51 138 1.0 2.0 0.00 0.00 0.00 85 1013.9
20260502064741 51 155 2.0 2.0 0.00 0.00 0.00 85 1014.0
20260502064238 51 137 1.0 2.0 0.00 0.00 0.00 84 1014.0
20260502063735 51 152 2.0 2.0 0.00 0.00 0.00 85 1013.9
20260502063233 52 151 2.0 2.0 0.00 0.00 0.00 84 1013.9
20260502062730 52 151 2.0 2.0 0.00 0.00 0.00 83 1013.9
20260502062228 52 152 1.0 2.0 0.00 0.00 0.00 83 1014.0
20260502061726 52 160 2.0 3.0 0.00 0.00 0.00 81 1013.8
20260502061223 53 150 1.0 2.0 0.00 0.00 0.00 80 1014.2
20260502060718 53 146 2.0 2.0 0.00 0.00 0.00 79 1014.0
20260502060214 53 145 2.0 2.0 0.00 0.00 0.00 78 1014.0
20260502055713 53 154 2.0 3.0 0.00 0.00 0.00 78 1014.1
20260502055210 53 146 2.0 2.0 0.00 0.00 0.00 78 1014.3
20260502054709 53 141 2.0 2.0 0.00 0.00 0.00 78 1014.4
20260502054206 53 147 2.0 2.0 0.00 0.00 0.00 79 1014.5
20260502053703 54 146 2.0 2.0 0.00 0.00 0.00 79 1014.5
20260502053201 54 142 1.0 2.0 0.00 0.00 0.00 79 1014.4
20260502052659 54 158 2.0 2.0 0.00 0.00 0.00 76 1014.4
20260502052157 54 154 2.0 2.0 0.00 0.00 0.00 76 1014.1
20260502051654 55 155 2.0 2.0 0.00 0.00 0.00 76 1014.2
20260502051152 55 155 2.0 2.0 0.00 0.00 0.00 75 1014.1
20260502050642 55 161 2.0 3.0 0.00 0.00 0.00 75 1014.1
20260502050139 55 162 2.0 3.0 0.00 0.00 0.00 75 1014.2
20260502045636 55 166 2.0 3.0 0.00 0.00 0.00 74 1014.1
20260502045133 55 149 2.0 2.0 0.00 0.00 0.00 73 1014.3
20260502044629 55 154 2.0 3.0 0.00 0.00 0.00 73 1014.2
20260502044126 55 164 2.0 3.0 0.00 0.00 0.00 73 1014.4
20260502043624 55 169 2.0 3.0 0.00 0.00 0.00 72 1014.3
20260502043115 55 165 3.0 3.0 0.00 0.00 0.00 73 1014.4
20260502042614 55 144 2.0 3.0 0.00 0.00 0.00 72 1014.6
20260502042112 55 145 2.0 3.0 0.00 0.00 0.00 72 1014.5
20260502041610 55 142 2.0 3.0 0.00 0.00 0.00 71 1014.5
20260502041107 56 150 2.0 3.0 0.00 0.00 0.00 71 1014.4
20260502040603 56 155 3.0 3.0 0.00 0.00 0.00 71 1014.4
20260502040101 56 142 2.0 3.0 0.00 0.00 0.00 71 1014.2
20260502035556 56 166 3.0 3.0 0.00 0.00 0.00 70 1014.4
20260502035054 56 171 3.0 3.0 0.00 0.00 0.00 70 1014.4
20260502034551 56 137 2.0 3.0 0.00 0.00 0.00 69 1014.1
20260502034050 57 169 2.0 3.0 0.00 0.00 0.00 68 1014.2
20260502033548 57 159 2.0 3.0 0.00 0.00 0.00 68 1014.2
20260502033045 57 165 2.0 3.0 0.00 0.00 0.00 68 1014.3
20260502032541 57 173 1.0 3.0 0.00 0.00 0.00 68 1014.2
20260502032037 57 175 2.0 3.0 0.00 0.00 0.00 67 1014.1
20260502031536 57 168 2.0 3.0 0.00 0.00 0.00 67 1013.8
20260502031033 57 159 2.0 2.0 0.00 0.00 0.00 66 1014.1
20260502030532 57 167 2.0 3.0 0.00 0.00 0.00 65 1013.9
20260502030029 57 170 3.0 3.0 0.00 0.00 0.00 65 1013.8
20260502025526 57 156 2.0 3.0 0.00 0.00 0.00 67 1013.6
20260502025025 58 168 2.0 2.0 0.00 0.00 0.00 65 1013.8
20260502024521 58 161 2.0 2.0 0.00 0.00 0.00 65 1013.7
20260502024020 58 168 3.0 3.0 0.00 0.00 0.00 64 1013.8
20260502023517 58 138 2.0 2.0 0.00 0.00 0.00 64 1013.7
20260502023014 58 169 3.0 3.0 0.00 0.00 0.00 64 1013.6
20260502022511 58 164 2.0 3.0 0.00 0.00 0.00 65 1013.8
20260502022008 57 157 2.0 3.0 0.00 0.00 0.00 66 1014.0
20260502021505 57 169 2.0 3.0 0.00 0.00 0.00 67 1014.0
20260502021002 57 170 2.0 3.0 0.00 0.00 0.00 69 1013.9
20260502020500 57 168 2.0 2.0 0.00 0.00 0.00 67 1013.8
20260502015956 57 156 2.0 2.0 0.00 0.00 0.00 65 1013.9
20260502015455 56 139 4.0 4.0 0.00 0.00 0.00 65 1013.7
20260502014950 56 144 2.0 2.0 0.00 0.00 0.00 69 1013.8
20260502014448 56 161 2.0 2.0 0.00 0.00 0.00 74 1013.7
20260502013944 56 150 2.0 2.0 0.00 0.00 0.00 73 1013.8
20260502013440 57 150 2.0 2.0 0.00 0.00 0.00 73 1013.8
20260502012936 57 151 2.0 2.0 0.00 0.00 0.00 71 1013.4
20260502012434 57 153 2.0 2.0 0.00 0.00 0.00 68 1013.4
20260502011932 58 156 2.0 2.0 0.00 0.00 0.00 68 1013.2
20260502011427 58 157 2.0 2.0 0.00 0.00 0.00 66 1013.3
20260502010925 58 161 2.0 2.0 0.00 0.00 0.00 67 1013.4
20260502010421 59 169 2.0 3.0 0.00 0.00 0.00 63 1013.4
20260502005917 59 153 2.0 2.0 0.00 0.00 0.00 61 1013.3
20260502005416 59 139 2.0 2.0 0.00 0.00 0.00 54 1013.1
20260502004914 60 149 2.0 2.0 0.00 0.00 0.00 54 1013.2
20260502004409 60 147 2.0 2.0 0.00 0.00 0.00 53 1012.8
20260502003907 60 151 2.0 2.0 0.00 0.00 0.00 53 1012.7
20260502003404 61 151 2.0 3.0 0.00 0.00 0.00 51 1012.6
20260502002900 61 166 3.0 3.0 0.00 0.00 0.00 49 1012.5
20260502002358 61 164 2.0 3.0 0.00 0.00 0.00 49 1012.5
20260502001854 62 160 3.0 3.0 0.00 0.00 0.00 47 1012.3
20260502001352 62 166 2.0 2.0 0.00 0.00 0.00 48 1012.6